CAPE
3271 3240 3253 3077 2794 2558 2207 2508 1863 2257 1722 2071 2461 2450 2393 2506 2616 2236 2034 2080 1815 1853 1446 1393 1347 688 394 284 733 675 450 314 177 110 98 113 128 32 119 344 354 312 258
3278 3273 3324 3329 3040 2801 2585 2294 2820 2230 2737 2628 2805 2334 2357 2328 2328 2234 2234 2193 1835 1701 1525 1262 1425 1161 859 982 932 693 516 467 279 285 260 316 226 226 94 114 318 423 306
3077 3078 3268 3258 3315 3177 2999 2743 2398 2787 2464 2414 3419 2940 2720 2868 2646 2489 2531 2121 1846 1786 1648 1409 1425 1435 1110 1110 1012 943 714 637 562 557 449 543 378 185 132 145 114 104 366
2972 3020 3112 3281 3323 3154 3031 3086 2948 2807 3039 2762 2846 3304 2969 2775 2939 2903 2656 2307 2112 1877 1711 1634 1557 1343 1326 1268 1159 1003 792 863 888 853 698 562 260 194 142 176 204 215 219
2568 2863 2907 3150 3189 3154 2998 2903 2992 2856 2950 3155 2935 3109 2987 3057 3082 2892 2558 2363 2242 2126 2001 1788 1559 1810 1780 1344 1495 1431 1287 1084 880 881 637 324 283 309 208 189 161 153 187
2302 2197 2122 2599 2806 2854 2843 2827 3120 2850 3214 3241 3064 2927 3137 2994 3067 2965 2809 2531 2431 2039 1789 1823 1654 1876 1650 1068 1074 998 834 1259 1116 1101 412 197 156 530 361 365 250 234 202
3684 2914 3329 2780 2559 2657 2759 3117 3203 3465 3709 3202 3095 3198 3096 3114 2999 2513 2727 2633 2373 2265 2059 1991 1902 1993 1577 1112 1054 966 751 639 778 630 573 257 103 118 760 712 685 422 269
2249 4018 4198 4447 3339 3133 4023 3859 3424 3652 3598 3694 3188 3208 3273 3165 2756 2244 2111 2469 2312 2288 2186 2049 1800 1699 1407 1414 1241 918 680 565 343 210 302 314 167 215 797 681 476 393 460
2593 2715 4212 4193 4624 4011 4148 4235 3935 3940 3738 3917 3660 3292 3334 3335 2078 1659 1175 1989 2242 2095 2226 1920 1532 1336 1468 1483 1628 1695 1341 1123 1195 645 319 213 131 460 805 310 66 104 39
2442 3049 3254 4265 4430 4325 4243 4336 4169 4074 4000 3956 3654 3270 3283 3311 1246 1437 1312 1840 1880 1763 1776 2103 1996 1719 1763 1455 785 1341 1421 1489 1447 880 75 143 189 238 0 46 0 0 88
2851 2428 3148 4302 4325 4420 4322 4320 4245 4169 3991 3804 3502 3358 3123 2706 750 703 1024 1747 1688 1508 1541 1506 1866 1861 1066 768 392 885 1128 871 1078 693 678 616 550 414 80 0 0 0 41
1605 2249 2373 2877 4287 4294 4378 4360 4291 4238 3856 3638 3184 3373 3131 2417 917 32 441 1349 1428 1401 1599 1403 614 659 283 20 0 7 129 124 420 488 520 408 177 157 275 233 22 28 73
1625 1853 2266 2640 3535 4064 3854 3953 3953 3786 3393 2025 196 5 16 50 1091 33 1 1 1 98 466 359 322 30 143 44 64 1 0 0 188 424 537 440 277 215 204 241 134 162 156
1264 1448 1672 2162 2751 1985 746 1085 800 802 233 46 3 11 0 0 4 381 200 72 11 12 98 163 153 341 432 220 21 0 1 52 278 337 394 335 171 162 147 134 121 98 66
1158 1503 1503 2259 987 1 1 1 67 1 364 2 0 0 0 0 0 0 289 963 878 349 141 831 588 610 812 674 469 497 266 267 291 215 194 156 107 70 51 39 36 44 45
1262 1494 1886 1340 29 0 0 0 0 4 0 0 0 0 1 0 2 59 5 0 2 25 314 537 464 325 296 257 229 180 101 136 145 93 78 79 58 44 25 15 3 0 2
880 1071 1565 576 23 0 0 0 0 2 2 1 0 1 0 0 2 2 2 2 1 24 192 77 45 66 84 79 40 0 12 3 4 16 0 18 11 0 9 3 0 0 5
1005 1551 1042 441 97 1 0 1 0 0 0 0 1 1 2 2 2 2 2 0 0 0 30 12 7 0 0 0 0 0 0 6 7 8 3 3 0 0 6 3 0 0 0
804 1313 1088 658 527 97 0 6 66 1 0 0 0 0 0 1 2 2 0 6 60 10 0 0 0 0 0 3 0 0 0 0 0 0 0 0 0 0 0 0 3 23 13
894 1132 1217 891 427 186 79 149 70 0 0 0 0 0 0 0 0 0 0 0 0 0 0 0 0 0 1 0 0 0 0 0 0 0 0 0 0 0 0 0 1 14 28
601 832 1073 781 413 241 195 259 122 2 0 0 0 0 0 3 0 0 0 0 0 0 0 0 0 0 0 0 0 0 0 0 0 0 0 0 0 0 0 0 0 0 0
564 450 620 552 600 297 281 368 24 0 0 0 0 0 0 0 0 0 0 0 0 0 0 0 0 0 0 0 0 0 0 0 0 0 0 0 0 0 0 0 0 0 0
546 374 336 434 582 378 407 166 26 0 0 0 0 0 0 0 0 0 0 0 0 0 0 0 0 0 0 0 0 0 0 0 0 0 0 0 0 0 0 0 0 0 0
366 381 549 628 420 68 16 1 0 0 0 0 0 0 0 0 0 0 0 0 0 0 0 0 0 0 0 0 0 0 0 0 0 0 0 0 0 0 0 0 0 0 0
3 263 100 48 12 5 0 0 0 0 0 0 0 0 0 0 0 0 0 0 0 0 0 0 0 0 0 0 0 0 0 0 0 0 0 0 0 0 0 0 0 0 0
89 92 21 2 0 0 0 0 0 0 0 0 0 0 0 0 0 0 0 0 0 0 0 0 0 0 0 0 0 0 0 0 0 0 0 0 0 0 0 0 0 0 0
CIN
-109 -87 -75 -84 -91 -88 -95 -85 -117 -88 -95 -62 -82 -91 -78 -65 -49 -46 -50 -38 -38 -28 -38 -36 -39 -100 -113 -102 -21 -18 -24 -22 -22 -55 -71 -94 -87 -110 -66 -28 -25 -41 -54
-116 -101 -82 -74 -87 -88 -98 -114 -73 -101 -72 -63 -53 -66 -59 -65 -52 -48 -48 -29 -34 -26 -32 -36 -30 -47 -59 -37 -19 -19 -48 -42 -42 -63 -76 -42 -79 -74 -99 -67 -25 -17 -38
-109 -100 -102 -93 -88 -99 -112 -117 -127 -95 -110 -83 -29 -49 -56 -40 -37 -42 -39 -45 -42 -37 -28 -25 -29 -34 -32 -29 -33 -12 -35 -44 -41 -19 -38 -48 -62 -83 -88 -80 -83 -84 -21
-140 -119 -125 -126 -115 -115 -116 -121 -109 -107 -79 -87 -61 -31 -47 -44 -28 -24 -26 -32 -31 -29 -30 -31 -24 -29 -26 -25 -24 -35 -45 -28 -21 -19 -30 -41 -65 -82 -95 -65 -59 -63 -66
-131 -126 -126 -131 -133 -130 -139 -148 -132 -118 -99 -77 -64 -35 -37 -28 -26 -37 -35 -35 -26 -27 -37 -34 -44 -18 -16 -37 -24 -21 -26 -22 -28 -22 -31 -57 -39 -38 -50 -65 -63 -57 -51
-125 -170 -223 -178 -153 -158 -170 -170 -155 -136 -98 -89 -85 -58 -35 -26 -25 -22 -36 -37 -33 -57 -65 -46 -59 -14 -27 -86 -77 -71 -83 -23 -21 -23 -63 -90 -100 -42 -54 -28 -29 -20 -30
-80 -100 -126 -197 -196 -189 -186 -165 -150 -139 -94 -130 -112 -63 -41 -40 -26 -41 -27 -55 -54 -45 -58 -66 -68 -35 -77 -137 -139 -130 -144 -130 -81 -86 -64 -120 -158 -151 -34 -24 -16 -33 -53
-197 -112 -85 -80 -156 -179 -120 -126 -148 -135 -117 -111 -132 -99 -62 -62 -75 -107 -110 -53 -62 -53 -43 -41 -57 -56 -94 -87 -105 -143 -188 -200 -237 -264 -201 -173 -187 -131 -54 -49 -53 -57 -45
-125 -151 -69 -52 -49 -109 -96 -102 -120 -106 -123 -90 -84 -94 -64 -52 -177 -204 -325 -129 -50 -39 -28 -40 -55 -59 -38 -59 -64 -41 -63 -85 -61 -141 -212 -230 -235 -95 -59 -106 -151 -97 -128
-107 -53 -64 -45 -46 -58 -77 -76 -79 -84 -84 -62 -77 -81 -61 -45 -355 -251 -295 -137 -74 -58 -33 -25 -22 -40 -23 -39 -120 -45 -41 -41 -40 -64 -346 -286 -220 -178 0 -181 0 0 -71
-61 -120 -53 -21 -39 -56 -66 -59 -48 -43 -37 -31 -48 -44 -35 -51 -387 -383 -297 -110 -84 -64 -47 -41 -51 -27 -81 -135 -193 -70 -52 -84 -44 -71 -65 -86 -92 -118 -207 0 0 0 -91
-142 -77 -87 -73 -25 -31 -32 -33 -27 -19 -22 -20 -33 -28 -31 -70 -233 -703 -390 -135 -99 -80 -27 -57 -198 -177 -309 -347 0 -131 -298 -308 -127 -93 -72 -74 -91 -81 -89 -138 -186 -210 -119
-87 -85 -45 -51 -28 -23 -11 -9 -3 -7 -32 -109 -539 -60 -593 -68 -135 -626 0 -68 0 -475 -254 -273 -272 -424 -363 -450 -358 0 0 -15 -172 -69 -52 -64 -82 -67 -68 -74 -108 -77 -85
-116 -107 -84 -40 -33 -150 -547 -431 -431 -351 -334 -260 -200 -631 0 0 -448 -262 -381 -498 -406 -69 -396 -312 -275 -169 -104 -201 -209 0 0 -254 -70 -51 -39 -48 -112 -88 -60 -61 -45 -67 -89
-115 -74 -72 -8 -306 0 0 0 -431 0 -342 -314 0 0 0 0 0 0 -464 -260 -225 -258 -267 -91 -88 -56 -21 -26 -27 -24 -59 -43 -30 -43 -38 -39 -64 -105 -97 -88 -82 -75 -52
-65 -56 -12 -105 -629 0 0 0 0 0 0 0 0 0 0 0 0 -387 -542 -92 -107 -241 -103 -50 -45 -57 -28 -30 -40 -29 -32 -28 -27 -51 -76 -70 -70 -72 -86 -82 -36 -36 -27
-96 -121 -48 -289 -590 0 0 0 0 0 0 0 0 0 0 0 0 0 0 0 0 -379 -118 -149 -175 -128 -124 -133 -167 -14 -145 -25 -78 -143 -5 -143 -100 0 -15 -21 0 0 -29
-64 -24 -102 -322 -512 -90 0 0 0 0 0 0 0 0 0 0 0 0 0 0 -87 0 -208 -148 -183 0 0 0 -30 -7 0 -29 -23 -25 -21 -16 0 0 -11 -11 0 0 0
-84 -24 -43 -205 -268 -504 0 -293 -608 0 0 0 0 0 0 0 0 0 0 -191 -265 -188 0 0 0 0 -18 -41 -14 0 0 0 0 0 0 0 0 0 0 -38 -48 -30 -43
-23 -12 -4 -67 -275 -386 -452 -403 -445 0 0 0 0 0 0 0 0 0 0 0 0 0 0 0 0 -35 -42 0 0 0 0 0 0 0 0 0 0 0 -12 0 -13 -36 -24
-15 -5 -12 -70 -207 -265 -266 -217 -300 -265 0 0 0 0 0 -473 0 0 0 0 0 0 0 0 0 0 0 0 0 0 0 0 0 0 0 0 0 0 0 0 0 0 0
-2 -18 -14 -43 -60 -150 -121 -71 -260 0 0 0 0 0 -31 0 0 0 0 -17 0 0 0 0 0 0 0 0 0 0 0 0 0 0 0 0 0 0 0 0 0 0 0
-2 -6 -22 -18 -10 -48 -36 -129 -273 0 0 0 0 0 0 0 0 0 0 0 0 0 0 0 0 0 0 0 0 0 0 0 0 0 0 0 0 0 0 0 0 0 0
-8 -1 -3 -7 -18 -144 -238 -249 -38 0 0 0 0 0 0 0 0 0 0 0 0 0 0 0 0 0 0 0 0 0 0 0 0 0 0 0 0 0 0 0 0 0 0
-10 -5 -67 -98 -152 -229 0 0 0 0 0 0 0 0 0 0 0 0 0 0 0 0 0 0 0 0 0 0 0 0 0 0 0 0 0 0 0 0 0 0 0 0 0
-42 -16 -42 -23 0 0 0 0 0 0 0 0 0 0 0 0 0 0 0 0 0 0 0 0 0 0 0 0 0 0 0 0 0 0 0 0 0 0 0 0 0 0 0
Wind_Speed
16 14 13 12 11 9 9 7 10 6 7 6 7 8 8 9 8 7 7 7 6 6 4 5 6 5 3 3 3 4 5 4 6 4 3 4 6 7 6 7 8 8 8
16 14 14 11 12 12 12 12 6 11 6 7 7 7 8 9 8 7 7 6 6 6 5 6 6 4 6 5 4 5 4 5 4 7 3 3 6 6 6 7 6 7 8
13 12 12 13 12 13 13 12 12 8 10 9 6 7 7 7 7 7 7 6 7 7 7 6 7 6 5 4 4 4 4 3 4 3 4 3 4 2 3 4 5 8 7
14 13 12 14 14 13 11 13 13 11 9 9 7 7 7 7 7 7 7 6 6 6 7 6 6 6 6 6 5 5 4 4 5 4 4 4 3 4 2 3 4 4 7
12 14 14 13 14 13 13 11 13 11 12 11 9 7 7 8 7 7 7 7 7 6 6 6 6 7 10 7 4 5 6 5 4 4 3 1 2 1 3 2 3 3 4
7 11 8 11 12 14 13 14 11 13 10 10 9 9 7 8 11 12 10 7 7 7 7 6 6 8 9 10 10 10 6 5 5 3 3 3 4 3 3 3 3 2 3
6 6 6 9 11 12 12 11 12 11 8 11 10 8 7 8 12 13 12 6 7 6 7 7 6 7 9 7 10 11 9 10 8 5 5 6 4 5 4 3 5 4 4
6 5 4 6 8 8 10 11 10 8 10 9 10 9 8 7 13 13 13 7 6 7 6 7 6 6 6 7 7 6 7 7 8 6 8 9 6 6 6 5 5 4 2
7 7 6 7 7 9 10 9 10 9 7 7 8 9 8 7 13 11 11 6 5 5 6 6 6 6 8 12 7 8 7 7 9 15 14 11 9 11 7 3 3 2 3
7 7 8 8 10 11 9 9 9 9 8 7 9 9 10 7 11 12 9 4 4 3 5 6 12 9 11 7 7 6 6 6 5 3 2 5 8 9 9 7 4 5 3
6 11 12 9 10 9 10 9 10 10 8 7 8 6 6 7 6 11 12 5 4 3 3 4 5 10 10 7 8 6 6 4 5 3 3 4 6 6 6 7 7 6 4
7 8 12 15 8 8 11 11 12 12 12 10 8 5 4 5 8 9 13 9 4 3 2 4 3 3 1 4 5 8 8 3 2 3 3 4 4 4 5 5 8 8 7
7 8 10 11 13 8 10 11 10 10 10 7 11 8 5 5 4 1 5 4 3 2 1 1 4 4 4 6 7 3 2 3 3 3 4 4 3 4 4 2 3 6 7
7 7 8 9 12 3 4 4 5 4 7 3 8 16 8 3 3 4 5 6 5 4 2 2 5 7 6 4 1 2 3 3 3 3 3 3 3 2 2 2 2 1 1
7 6 8 7 4 6 6 5 2 2 10 15 10 10 9 5 5 8 9 7 6 5 5 1 1 2 3 2 1 1 2 1 1 2 2 3 3 2 2 2 1 1 2
8 5 5 2 5 5 6 6 14 6 6 5 7 8 2 9 16 12 15 17 11 8 3 1 1 4 3 2 3 2 2 3 2 2 2 2 3 3 3 3 1 1 2
10 7 4 7 8 9 6 10 8 6 9 5 14 13 10 14 12 10 11 12 13 9 5 4 4 4 2 3 4 3 2 2 3 3 2 3 3 3 4 3 3 3 3
10 12 6 8 9 8 8 10 10 10 10 5 3 5 7 11 12 13 10 12 5 5 4 4 4 4 3 4 4 3 4 4 4 4 4 3 4 2 2 3 3 2 3
12 8 8 9 10 10 10 8 8 10 6 4 3 8 7 4 14 11 5 6 6 7 5 4 4 5 5 4 4 5 5 5 4 4 5 5 5 3 3 3 4 6 4
11 15 13 12 10 10 9 8 9 10 10 9 5 4 4 5 2 3 3 8 11 7 5 5 5 4 5 6 7 6 7 8 7 7 7 6 6 5 5 5 4 4 3
8 7 18 13 14 11 9 9 7 8 8 7 10 6 10 5 8 9 9 7 8 8 6 7 8 8 8 8 8 8 7 7 7 7 7 6 7 7 7 7 6 5 5
8 7 11 13 12 12 9 9 8 9 10 11 8 5 12 9 9 9 9 8 7 9 9 9 9 9 8 8 7 6 6 5 5 6 6 6 6 6 6 7 5 5 5
11 11 11 11 12 13 11 11 10 10 10 10 9 8 9 10 9 10 10 9 10 9 9 9 9 9 8 7 6 5 4 4 4 5 5 6 6 6 6 7 5 4 4
6 13 13 11 12 12 13 12 12 12 11 10 11 12 11 10 10 10 10 10 9 9 8 8 8 10 8 6 5 5 4 3 3 4 6 4 5 8 7 4 5 6 5
8 5 11 15 15 12 14 14 12 12 13 12 12 13 12 11 10 8 7 8 8 8 9 10 8 10 10 10 7 5 6 12 7 9 4 5 6 8 6 5 5 5 6
17 15 13 13 14 16 14 13 14 13 14 13 13 12 11 10 10 10 9 9 8 8 12 11 10 10 9 5 6 7 6 8 7 8 5 5 5 5 5 6 9 6 7
Wind_Direction
186 190 190 191 193 198 210 209 217 215 215 209 185 185 189 194 193 191 203 213 199 200 218 207 224 184 206 227 194 199 205 180 230 280 234 219 188 199 220 219 228 223 230
186 183 195 185 188 198 211 220 208 216 208 211 192 187 186 189 190 199 201 207 206 208 218 210 226 185 210 207 195 218 198 187 192 246 250 246 215 197 201 191 209 238 226
182 186 181 191 191 198 203 210 217 213 209 211 197 190 187 188 192 204 204 197 208 204 205 210 216 206 221 208 194 211 212 195 191 206 240 243 231 198 185 212 215 227 245
181 188 187 190 193 200 201 200 208 207 200 202 198 190 187 188 198 202 199 198 200 211 209 204 209 209 213 200 200 208 209 203 200 210 235 253 222 243 173 198 241 217 238
181 184 198 193 193 195 200 199 200 200 203 195 192 191 189 189 207 201 192 189 197 210 203 197 213 217 214 184 177 214 210 203 190 210 235 238 249 195 203 227 229 245 254
187 195 186 192 189 195 199 202 192 200 190 185 183 190 189 202 206 196 187 182 186 187 202 220 223 221 212 199 200 200 187 183 201 174 203 214 231 198 193 203 219 235 281
290 233 198 185 196 197 198 195 200 186 167 183 183 179 196 196 193 192 198 180 180 196 201 203 215 216 198 206 221 222 216 209 205 184 215 225 231 218 197 205 213 204 218
277 260 234 189 194 196 182 189 188 180 176 173 182 183 191 200 178 194 194 195 187 197 204 215 218 218 202 203 207 225 230 218 219 216 216 235 210 225 208 191 201 222 255
306 293 234 226 202 189 193 177 180 174 181 169 177 188 184 188 181 182 167 179 192 218 212 208 222 238 237 211 200 207 224 232 224 219 221 229 222 222 202 158 232 206 269
314 306 266 222 211 192 182 181 182 180 182 178 176 182 185 178 183 171 169 150 182 219 241 235 215 206 224 206 195 229 224 226 223 213 213 219 224 232 209 211 185 208 206
338 332 326 258 210 188 181 186 178 178 167 168 172 174 162 144 181 178 173 156 176 207 222 249 243 216 211 231 231 234 222 228 253 232 259 238 242 237 219 221 215 207 207
322 316 316 319 236 212 198 194 188 176 169 172 142 146 151 139 152 195 181 186 120 91 7 33 19 72 206 221 228 242 277 271 247 262 258 259 251 251 244 224 212 213 220
312 310 304 308 293 227 219 221 216 199 175 127 87 53 339 45 72 14 311 336 57 157 117 144 179 275 328 307 270 266 208 215 235 247 250 256 242 267 295 284 246 230 237
289 285 299 301 307 355 62 82 120 161 104 56 155 144 186 249 164 189 161 161 179 226 227 220 238 257 249 256 227 171 226 236 228 243 253 261 284 317 318 273 266 258 239
277 280 291 279 140 86 49 41 103 44 173 155 163 149 165 187 223 173 178 157 98 59 345 168 188 231 272 292 327 152 205 274 298 307 320 319 318 312 298 309 310 329 226
272 265 279 185 134 129 124 77 40 27 145 135 155 126 164 184 182 146 106 91 105 136 193 190 104 90 93 79 81 69 48 38 22 7 19 25 355 342 327 318 300 262 270
258 250 239 157 164 152 153 122 108 34 30 83 136 159 175 156 127 110 109 124 132 129 116 114 109 104 77 56 76 70 79 14 9 30 34 17 29 357 351 330 340 346 330
254 234 182 171 169 157 151 150 144 145 149 161 350 58 129 132 120 115 121 109 74 44 116 132 117 93 92 73 55 60 32 15 20 22 43 34 21 354 326 314 306 295 310
256 240 193 183 169 164 153 162 148 138 132 111 111 50 20 282 114 96 103 98 119 101 96 77 71 70 68 63 63 62 55 44 30 29 33 30 360 354 316 316 303 279 254
248 232 206 182 161 158 152 173 166 146 153 150 138 125 143 254 111 89 82 97 97 100 95 85 81 78 66 55 48 45 53 40 19 19 19 15 350 341 319 308 308 312 286
237 228 188 171 161 156 162 165 155 131 149 156 136 151 177 151 112 107 102 94 99 101 97 77 67 67 57 52 49 42 35 27 23 17 7 358 350 339 335 338 331 331 323
176 181 168 158 158 145 161 143 146 156 144 131 145 152 134 117 103 101 94 95 88 84 82 83 77 71 63 60 58 49 38 25 11 11 348 341 338 334 331 324 325 336 357
170 177 156 164 147 147 145 150 142 136 131 132 142 124 105 99 102 99 97 94 87 83 82 85 85 80 77 74 67 59 50 13 341 352 338 331 331 321 321 321 331 359 349
200 177 166 151 131 130 129 127 128 119 109 107 104 100 99 100 96 90 93 92 95 98 91 90 89 94 85 68 55 52 34 359 338 343 331 322 316 318 321 330 353 347 348
94 180 135 127 125 129 119 112 110 111 102 97 91 87 86 82 79 71 76 98 102 103 115 105 99 91 85 82 68 56 33 21 17 348 334 329 311 322 355 353 353 346 338
105 109 108 117 114 105 105 106 101 97 95 92 88 85 88 86 76 69 66 73 78 81 90 100 100 100 92 84 81 66 40 13 358 340 330 319 327 358 0 344 340 330 320